Time,TemperatureF,DewpointF,PressureIn,WindDirection,WindDirectionDegrees,WindSpeedMPH,WindSpeedGustMPH,Humidity,HourlyPrecipIn,Conditions,Clouds,dailyrainin,SolarRadiationWatts/m^2,SoftwareType,DateUTC
2013-10-27 00:01:00,46.9,29.0,29.84,South,190,1.0,4.0,51,0.00,,,0.00,0,WX/SQL,2013-10-27 04:01:00,
2013-10-27 00:06:00,46.8,30.0,29.83,SSW,198,2.0,4.0,52,0.00,,,0.00,0,WX/SQL,2013-10-27 04:06:00,
2013-10-27 00:11:00,46.8,30.0,29.83,South,179,2.0,4.0,52,0.00,,,0.00,0,WX/SQL,2013-10-27 04:11:00,
2013-10-27 00:16:00,46.7,30.0,29.83,South,179,0.0,4.0,52,0.00,,,0.00,0,WX/SQL,2013-10-27 04:16:00,
2013-10-27 00:21:00,46.7,30.0,29.83,South,179,1.0,2.0,52,0.00,,,0.00,0,WX/SQL,2013-10-27 04:21:00,
2013-10-27 00:26:00,46.5,30.0,29.83,South,179,1.0,2.0,53,0.00,,,0.00,0,WX/SQL,2013-10-27 04:26:00,
2013-10-27 00:31:00,46.4,30.0,29.83,SW,232,2.0,4.0,53,0.00,,,0.00,0,WX/SQL,2013-10-27 04:31:00,
2013-10-27 00:36:00,46.5,30.0,29.83,WSW,239,0.0,4.0,52,0.00,,,0.00,0,WX/SQL,2013-10-27 04:36:00,
2013-10-27 00:41:00,46.6,30.0,29.84,West,267,3.0,4.0,52,0.00,,,0.00,0,WX/SQL,2013-10-27 04:41:00,
2013-10-27 00:46:00,46.7,30.0,29.84,WNW,293,7.0,7.0,52,0.00,,,0.00,0,WX/SQL,2013-10-27 04:46:00,
2013-10-27 00:51:00,46.8,30.0,29.84,West,278,2.0,8.0,52,0.00,,,0.00,0,WX/SQL,2013-10-27 04:51:00,
2013-10-27 00:56:00,46.8,30.0,29.84,WSW,252,2.0,8.0,53,0.00,,,0.00,0,WX/SQL,2013-10-27 04:56:00,
2013-10-27 01:01:00,46.8,30.0,29.84,SW,234,9.0,10.0,53,0.00,,,0.00,0,WX/SQL,2013-10-27 05:01:00,
2013-10-27 01:06:00,47.0,31.0,29.84,WNW,301,9.0,14.0,54,0.00,,,0.00,0,WX/SQL,2013-10-27 05:06:00,
2013-10-27 01:11:00,46.9,32.0,29.84,SSW,213,4.0,15.0,56,0.00,,,0.00,0,WX/SQL,2013-10-27 05:11:00,
2013-10-27 01:16:00,46.7,32.0,29.84,West,273,2.0,15.0,58,0.00,,,0.00,0,WX/SQL,2013-10-27 05:16:00,
2013-10-27 01:21:00,46.4,33.0,29.84,WSW,258,3.0,14.0,59,0.00,,,0.00,0,WX/SQL,2013-10-27 05:21:00,
2013-10-27 01:26:00,46.3,32.0,29.84,WNW,294,5.0,9.0,59,0.00,,,0.00,0,WX/SQL,2013-10-27 05:26:00,
2013-10-27 01:31:00,46.0,33.0,29.84,West,265,7.0,12.0,61,0.00,,,0.00,0,WX/SQL,2013-10-27 05:31:00,
2013-10-27 01:36:00,45.8,33.0,29.84,SSW,205,1.0,12.0,62,0.00,,,0.00,0,WX/SQL,2013-10-27 05:36:00,
2013-10-27 01:41:00,45.6,34.0,29.84,WNW,292,3.0,11.0,63,0.00,,,0.00,0,WX/SQL,2013-10-27 05:41:00,
2013-10-27 01:46:00,45.5,34.0,29.83,WNW,288,2.0,13.0,65,0.00,,,0.00,0,WX/SQL,2013-10-27 05:46:00,
2013-10-27 01:51:00,45.3,34.0,29.83,WNW,283,3.0,13.0,65,0.00,,,0.00,0,WX/SQL,2013-10-27 05:51:00,
2013-10-27 01:56:00,45.1,34.0,29.83,SW,232,1.0,10.0,66,0.00,,,0.00,0,WX/SQL,2013-10-27 05:56:00,
2013-10-27 02:01:00,45.0,34.0,29.83,WSW,242,2.0,7.0,66,0.00,,,0.00,0,WX/SQL,2013-10-27 06:01:00,
2013-10-27 02:06:00,44.9,34.0,29.83,SW,228,1.0,7.0,67,0.00,,,0.00,0,WX/SQL,2013-10-27 06:06:00,
2013-10-27 02:11:00,44.6,35.0,29.83,South,172,1.0,4.0,68,0.00,,,0.00,0,WX/SQL,2013-10-27 06:11:00,
2013-10-27 02:16:00,44.4,35.0,29.83,SSW,208,0.0,4.0,69,0.00,,,0.00,0,WX/SQL,2013-10-27 06:16:00,
2013-10-27 02:21:00,44.2,35.0,29.83,WNW,285,1.0,2.0,69,0.00,,,0.00,0,WX/SQL,2013-10-27 06:21:00,
2013-10-27 02:26:00,43.9,35.0,29.83,WNW,284,1.0,2.0,70,0.00,,,0.00,0,WX/SQL,2013-10-27 06:26:00,
2013-10-27 02:31:00,43.7,35.0,29.83,West,259,1.0,3.0,71,0.00,,,0.00,0,WX/SQL,2013-10-27 06:31:00,
2013-10-27 02:36:00,43.5,35.0,29.82,South,190,1.0,3.0,71,0.00,,,0.00,0,WX/SQL,2013-10-27 06:36:00,
2013-10-27 02:41:00,43.3,35.0,29.82,SW,227,2.0,2.0,72,0.00,,,0.00,0,WX/SQL,2013-10-27 06:41:00,
2013-10-27 02:46:00,43.1,35.0,29.82,SW,227,0.0,2.0,72,0.00,,,0.00,0,WX/SQL,2013-10-27 06:46:00,
2013-10-27 02:51:00,42.9,34.0,29.82,SW,227,1.0,3.0,72,0.00,,,0.00,0,WX/SQL,2013-10-27 06:51:00,
2013-10-27 02:56:00,42.7,35.0,29.82,SW,227,1.0,3.0,73,0.00,,,0.00,0,WX/SQL,2013-10-27 06:56:00,
2013-10-27 03:02:00,42.5,34.0,29.82,SW,227,1.0,2.0,73,0.00,,,0.00,0,WX/SQL,2013-10-27 07:02:00,
2013-10-27 03:07:00,42.3,35.0,29.82,West,259,1.0,2.0,74,0.00,,,0.00,0,WX/SQL,2013-10-27 07:07:00,
2013-10-27 03:12:00,42.2,34.0,29.82,WSW,257,1.0,2.0,74,0.00,,,0.00,0,WX/SQL,2013-10-27 07:12:00,
2013-10-27 03:17:00,42.0,35.0,29.82,WSW,242,1.0,2.0,75,0.00,,,0.00,0,WX/SQL,2013-10-27 07:17:00,
2013-10-27 03:22:00,41.9,35.0,29.82,WSW,242,1.0,2.0,75,0.00,,,0.00,0,WX/SQL,2013-10-27 07:22:00,
2013-10-27 03:27:00,42.1,35.0,29.81,SW,236,1.0,4.0,75,0.00,,,0.00,0,WX/SQL,2013-10-27 07:27:00,
2013-10-27 03:32:00,42.2,35.0,29.81,South,169,2.0,4.0,75,0.00,,,0.00,0,WX/SQL,2013-10-27 07:32:00,
2013-10-27 03:37:00,42.2,34.0,29.81,SW,236,1.0,4.0,74,0.00,,,0.00,0,WX/SQL,2013-10-27 07:37:00,
2013-10-27 03:42:00,42.1,34.0,29.81,South,174,1.0,3.0,74,0.00,,,0.00,0,WX/SQL,2013-10-27 07:42:00,
2013-10-27 03:47:00,42.2,34.0,29.80,South,182,0.0,4.0,74,0.00,,,0.00,0,WX/SQL,2013-10-27 07:47:00,
2013-10-27 03:52:00,42.1,34.0,29.80,SSW,207,1.0,4.0,74,0.00,,,0.00,0,WX/SQL,2013-10-27 07:52:00,
2013-10-27 03:57:00,42.0,35.0,29.80,SSW,202,1.0,3.0,75,0.00,,,0.00,0,WX/SQL,2013-10-27 07:57:00,
2013-10-27 04:02:00,42.1,35.0,29.80,SSW,202,1.0,3.0,75,0.00,,,0.00,0,WX/SQL,2013-10-27 08:02:00,
2013-10-27 04:07:00,42.3,35.0,29.80,SW,217,1.0,3.0,75,0.00,,,0.00,0,WX/SQL,2013-10-27 08:07:00,
2013-10-27 04:12:00,42.3,35.0,29.81,SW,218,0.0,3.0,75,0.00,,,0.00,0,WX/SQL,2013-10-27 08:12:00,
2013-10-27 04:17:00,42.4,35.0,29.81,SSW,201,0.0,3.0,75,0.00,,,0.00,0,WX/SQL,2013-10-27 08:17:00,
2013-10-27 04:22:00,42.3,35.0,29.81,SSW,201,1.0,3.0,75,0.00,,,0.00,0,WX/SQL,2013-10-27 08:22:00,
2013-10-27 04:27:00,42.3,35.0,29.81,SSW,192,0.0,2.0,75,0.00,,,0.00,0,WX/SQL,2013-10-27 08:27:00,
2013-10-27 04:32:00,42.4,35.0,29.81,South,190,0.0,3.0,75,0.00,,,0.00,0,WX/SQL,2013-10-27 08:32:00,
2013-10-27 04:37:00,42.4,35.0,29.81,South,190,0.0,3.0,76,0.00,,,0.00,0,WX/SQL,2013-10-27 08:37:00,
2013-10-27 04:42:00,42.4,35.0,29.81,SSW,192,1.0,3.0,75,0.00,,,0.00,0,WX/SQL,2013-10-27 08:42:00,
2013-10-27 04:47:00,42.3,35.0,29.81,SSW,194,0.0,3.0,75,0.00,,,0.00,0,WX/SQL,2013-10-27 08:47:00,
2013-10-27 04:52:00,42.2,35.0,29.81,SSW,194,0.0,2.0,76,0.00,,,0.00,0,WX/SQL,2013-10-27 08:52:00,
2013-10-27 04:57:00,42.1,35.0,29.82,SSW,194,1.0,2.0,76,0.00,,,0.00,0,WX/SQL,2013-10-27 08:57:00,
2013-10-27 05:02:00,42.1,35.0,29.82,SSW,202,1.0,3.0,76,0.00,,,0.00,0,WX/SQL,2013-10-27 09:02:00,
2013-10-27 05:07:00,42.2,35.0,29.82,SW,220,2.0,4.0,75,0.00,,,0.00,0,WX/SQL,2013-10-27 09:07:00,
2013-10-27 05:12:00,42.3,35.0,29.82,West,262,3.0,5.0,75,0.00,,,0.00,0,WX/SQL,2013-10-27 09:12:00,
2013-10-27 05:17:00,42.5,35.0,29.82,SW,236,1.0,5.0,75,0.00,,,0.00,0,WX/SQL,2013-10-27 09:17:00,
2013-10-27 05:22:00,42.7,35.0,29.82,WSW,254,2.0,6.0,74,0.00,,,0.00,0,WX/SQL,2013-10-27 09:22:00,
2013-10-27 05:27:00,42.9,35.0,29.82,WNW,290,0.0,6.0,74,0.00,,,0.00,0,WX/SQL,2013-10-27 09:27:00,
2013-10-27 05:32:00,42.9,35.0,29.83,WSW,244,0.0,4.0,74,0.00,,,0.00,0,WX/SQL,2013-10-27 09:32:00,
2013-10-27 05:37:00,42.9,35.0,29.83,West,271,2.0,4.0,74,0.00,,,0.00,0,WX/SQL,2013-10-27 09:37:00,
2013-10-27 05:42:00,42.9,35.0,29.83,WSW,243,1.0,4.0,74,0.00,,,0.00,0,WX/SQL,2013-10-27 09:42:00,
2013-10-27 05:47:00,42.9,35.0,29.83,SW,230,1.0,4.0,74,0.00,,,0.00,0,WX/SQL,2013-10-27 09:47:00,
2013-10-27 05:52:00,42.9,35.0,29.83,WSW,254,1.0,4.0,74,0.00,,,0.00,0,WX/SQL,2013-10-27 09:52:00,
2013-10-27 05:57:00,42.9,36.0,29.83,WSW,238,1.0,3.0,75,0.00,,,0.00,0,WX/SQL,2013-10-27 09:57:00,
2013-10-27 06:02:00,42.8,35.0,29.83,WSW,242,1.0,3.0,75,0.00,,,0.00,0,WX/SQL,2013-10-27 10:02:00,
2013-10-27 06:07:00,42.8,35.0,29.84,West,267,2.0,6.0,75,0.00,,,0.00,0,WX/SQL,2013-10-27 10:07:00,
2013-10-27 06:12:00,43.0,36.0,29.84,West,265,2.0,7.0,75,0.00,,,0.00,0,WX/SQL,2013-10-27 10:12:00,
2013-10-27 06:17:00,43.0,36.0,29.83,WSW,246,2.0,7.0,75,0.00,,,0.00,0,WX/SQL,2013-10-27 10:17:00,
2013-10-27 06:22:00,42.9,36.0,29.83,SE,144,2.0,5.0,75,0.00,,,0.00,0,WX/SQL,2013-10-27 10:22:00,
2013-10-27 06:27:00,42.8,35.0,29.83,SW,230,2.0,5.0,75,0.00,,,0.00,0,WX/SQL,2013-10-27 10:27:00,
2013-10-27 06:32:00,42.8,35.0,29.84,West,261,3.0,8.0,75,0.00,,,0.00,0,WX/SQL,2013-10-27 10:32:00,
2013-10-27 06:37:00,42.6,35.0,29.84,West,270,3.0,8.0,75,0.00,,,0.00,0,WX/SQL,2013-10-27 10:37:00,
2013-10-27 06:42:00,42.6,36.0,29.84,WNW,282,1.0,5.0,76,0.00,,,0.00,0,WX/SQL,2013-10-27 10:42:00,
2013-10-27 06:47:00,42.7,36.0,29.84,WSW,255,2.0,7.0,76,0.00,,,0.00,0,WX/SQL,2013-10-27 10:47:00,
2013-10-27 06:52:00,42.8,36.0,29.84,WSW,257,2.0,6.0,76,0.00,,,0.00,0,WX/SQL,2013-10-27 10:52:00,
2013-10-27 06:57:00,42.9,36.0,29.84,SSE,153,1.0,6.0,76,0.00,,,0.00,0,WX/SQL,2013-10-27 10:57:00,
2013-10-27 07:02:00,42.9,36.0,29.84,SW,215,3.0,8.0,75,0.00,,,0.00,0,WX/SQL,2013-10-27 11:02:00,
2013-10-27 07:07:00,43.0,36.0,29.84,SW,217,2.0,8.0,75,0.00,,,0.00,0,WX/SQL,2013-10-27 11:07:00,
2013-10-27 07:12:00,42.9,36.0,29.84,South,187,3.0,5.0,75,0.00,,,0.00,0,WX/SQL,2013-10-27 11:12:00,
2013-10-27 07:17:00,42.6,35.0,29.84,SE,145,0.0,4.0,75,0.00,,,0.00,0,WX/SQL,2013-10-27 11:17:00,
2013-10-27 07:22:00,42.2,35.0,29.84,SSW,210,1.0,4.0,76,0.00,,,0.00,0,WX/SQL,2013-10-27 11:22:00,
2013-10-27 07:27:00,42.0,35.0,29.85,SSW,210,1.0,3.0,76,0.00,,,0.00,5,WX/SQL,2013-10-27 11:27:00,
2013-10-27 07:32:00,41.6,35.0,29.85,WSW,249,1.0,2.0,77,0.00,,,0.00,5,WX/SQL,2013-10-27 11:32:00,
2013-10-27 07:37:00,41.4,35.0,29.86,WSW,246,0.0,2.0,78,0.00,,,0.00,7,WX/SQL,2013-10-27 11:37:00,
2013-10-27 07:42:00,41.4,35.0,29.86,South,176,0.0,2.0,78,0.00,,,0.00,7,WX/SQL,2013-10-27 11:42:00,
2013-10-27 07:47:00,41.4,35.0,29.86,SSE,158,2.0,2.0,78,0.00,,,0.00,7,WX/SQL,2013-10-27 11:47:00,
2013-10-27 07:52:00,41.3,35.0,29.86,SSE,149,1.0,2.0,79,0.00,,,0.00,7,WX/SQL,2013-10-27 11:52:00,
2013-10-27 07:57:00,41.4,35.0,29.87,SSE,149,1.0,2.0,79,0.00,,,0.00,9,WX/SQL,2013-10-27 11:57:00,
2013-10-27 08:02:00,41.5,35.0,29.87,SSE,157,1.0,3.0,79,0.00,,,0.00,21,WX/SQL,2013-10-27 12:02:00,
2013-10-27 08:07:00,41.6,36.0,29.87,SSE,156,0.0,3.0,80,0.00,,,0.00,25,WX/SQL,2013-10-27 12:07:00,
2013-10-27 08:12:00,41.6,36.0,29.87,SW,218,1.0,2.0,80,0.00,,,0.00,26,WX/SQL,2013-10-27 12:12:00,
2013-10-27 08:17:00,41.9,35.0,29.87,West,275,4.0,6.0,77,0.00,,,0.00,37,WX/SQL,2013-10-27 12:17:00,
2013-10-27 08:22:00,42.4,36.0,29.87,SW,228,1.0,6.0,77,0.00,,,0.00,40,WX/SQL,2013-10-27 12:22:00,
2013-10-27 08:27:00,42.8,36.0,29.87,West,260,6.0,8.0,76,0.00,,,0.00,44,WX/SQL,2013-10-27 12:27:00,
2013-10-27 08:32:00,43.2,36.0,29.87,WSW,252,4.0,9.0,75,0.00,,,0.00,35,WX/SQL,2013-10-27 12:32:00,
2013-10-27 08:37:00,43.3,36.0,29.88,WNW,302,7.0,9.0,75,0.00,,,0.00,39,WX/SQL,2013-10-27 12:37:00,
2013-10-27 08:42:00,43.3,36.0,29.88,West,263,4.0,11.0,74,0.00,,,0.00,53,WX/SQL,2013-10-27 12:42:00,
2013-10-27 08:47:00,43.6,36.0,29.88,NW,311,5.0,11.0,74,0.00,,,0.00,79,WX/SQL,2013-10-27 12:47:00,
2013-10-27 08:52:00,43.8,36.0,29.88,West,275,7.0,13.0,73,0.00,,,0.00,39,WX/SQL,2013-10-27 12:52:00,
2013-10-27 08:57:00,43.8,36.0,29.88,SW,223,8.0,14.0,73,0.00,,,0.00,74,WX/SQL,2013-10-27 12:57:00,
2013-10-27 09:02:00,44.0,36.0,29.88,WSW,254,3.0,14.0,73,0.00,,,0.00,88,WX/SQL,2013-10-27 13:02:00,
2013-10-27 09:07:00,44.1,36.0,29.88,NW,304,4.0,16.0,74,0.00,,,0.00,86,WX/SQL,2013-10-27 13:07:00,
2013-10-27 09:12:00,44.5,36.0,29.89,WNW,299,8.0,19.0,73,0.00,,,0.00,49,WX/SQL,2013-10-27 13:12:00,
2013-10-27 09:17:00,45.2,36.0,29.88,WNW,290,7.0,19.0,71,0.00,,,0.00,285,WX/SQL,2013-10-27 13:17:00,
2013-10-27 09:22:00,45.6,36.0,29.89,WSW,241,8.0,24.0,69,0.00,,,0.00,83,WX/SQL,2013-10-27 13:22:00,
2013-10-27 09:27:00,45.7,36.0,29.88,WNW,286,9.0,23.0,68,0.00,,,0.00,290,WX/SQL,2013-10-27 13:27:00,
2013-10-27 09:32:00,46.0,35.0,29.89,NW,319,12.0,23.0,66,0.00,,,0.00,299,WX/SQL,2013-10-27 13:32:00,
2013-10-27 09:37:00,46.2,35.0,29.88,WNW,292,10.0,27.0,65,0.00,,,0.00,309,WX/SQL,2013-10-27 13:37:00,
2013-10-27 09:42:00,46.5,35.0,29.89,NNW,344,9.0,29.0,65,0.00,,,0.00,323,WX/SQL,2013-10-27 13:42:00,
2013-10-27 09:47:00,46.3,34.0,29.89,WNW,289,18.0,29.0,63,0.00,,,0.00,346,WX/SQL,2013-10-27 13:47:00,
2013-10-27 09:52:00,46.2,34.0,29.90,NNW,329,11.0,29.0,63,0.00,,,0.00,352,WX/SQL,2013-10-27 13:52:00,
2013-10-27 09:57:00,46.2,35.0,29.90,West,269,7.0,22.0,64,0.00,,,0.00,359,WX/SQL,2013-10-27 13:57:00,
2013-10-27 10:02:00,46.3,35.0,29.90,NW,306,9.0,23.0,64,0.00,,,0.00,369,WX/SQL,2013-10-27 14:02:00,
2013-10-27 10:07:00,46.3,35.0,29.90,WNW,292,10.0,23.0,64,0.00,,,0.00,378,WX/SQL,2013-10-27 14:07:00,
2013-10-27 10:12:00,46.3,34.0,29.91,WNW,302,8.0,21.0,63,0.00,,,0.00,394,WX/SQL,2013-10-27 14:12:00,
2013-10-27 10:17:00,46.3,34.0,29.91,WNW,301,12.0,21.0,63,0.00,,,0.00,403,WX/SQL,2013-10-27 14:17:00,
2013-10-27 10:22:00,46.6,35.0,29.91,West,281,7.0,20.0,64,0.00,,,0.00,429,WX/SQL,2013-10-27 14:22:00,
2013-10-27 10:27:00,46.9,35.0,29.91,WSW,246,10.0,18.0,63,0.00,,,0.00,499,WX/SQL,2013-10-27 14:27:00,
2013-10-27 10:32:00,47.4,35.0,29.91,West,275,9.0,18.0,63,0.00,,,0.00,594,WX/SQL,2013-10-27 14:32:00,
2013-10-27 10:37:00,47.9,35.0,29.91,SSW,211,4.0,17.0,62,0.00,,,0.00,647,WX/SQL,2013-10-27 14:37:00,
2013-10-27 10:42:00,47.5,34.0,29.91,WNW,292,7.0,17.0,61,0.00,,,0.00,276,WX/SQL,2013-10-27 14:42:00,
2013-10-27 10:47:00,47.2,35.0,29.92,NW,304,10.0,17.0,62,0.00,,,0.00,186,WX/SQL,2013-10-27 14:47:00,
2013-10-27 10:52:00,47.2,35.0,29.92,NW,308,8.0,16.0,63,0.00,,,0.00,577,WX/SQL,2013-10-27 14:52:00,
2013-10-27 10:57:00,47.6,35.0,29.92,West,279,6.0,19.0,61,0.00,,,0.00,517,WX/SQL,2013-10-27 14:57:00,
2013-10-27 11:02:00,47.6,34.0,29.92,West,280,13.0,19.0,60,0.00,,,0.00,179,WX/SQL,2013-10-27 15:02:00,
2013-10-27 11:07:00,47.3,33.0,29.92,West,281,11.0,22.0,59,0.00,,,0.00,258,WX/SQL,2013-10-27 15:07:00,
2013-10-27 11:12:00,47.3,33.0,29.92,NW,304,9.0,22.0,59,0.00,,,0.00,250,WX/SQL,2013-10-27 15:12:00,
2013-10-27 11:17:00,47.2,34.0,29.93,WNW,301,5.0,18.0,60,0.00,,,0.00,125,WX/SQL,2013-10-27 15:17:00,
2013-10-27 11:22:00,46.7,34.0,29.93,WSW,257,9.0,18.0,62,0.00,,,0.00,125,WX/SQL,2013-10-27 15:22:00,
2013-10-27 11:27:00,46.3,35.0,29.93,WSW,257,4.0,18.0,64,0.00,,,0.00,178,WX/SQL,2013-10-27 15:27:00,
2013-10-27 11:32:00,46.5,35.0,29.93,WNW,290,8.0,15.0,65,0.00,,,0.00,527,WX/SQL,2013-10-27 15:32:00,
2013-10-27 11:37:00,47.4,35.0,29.93,West,270,7.0,15.0,63,0.00,,,0.00,543,WX/SQL,2013-10-27 15:37:00,
2013-10-27 11:42:00,47.5,34.0,29.93,West,280,8.0,20.0,59,0.00,,,0.00,179,WX/SQL,2013-10-27 15:42:00,
2013-10-27 11:47:00,46.8,33.0,29.94,NW,309,4.0,20.0,60,0.00,,,0.00,214,WX/SQL,2013-10-27 15:47:00,
2013-10-27 11:52:00,46.7,34.0,29.94,West,269,7.0,19.0,62,0.00,,,0.00,294,WX/SQL,2013-10-27 15:52:00,
2013-10-27 11:57:00,47.1,35.0,29.94,WNW,292,5.0,17.0,62,0.00,,,0.00,269,WX/SQL,2013-10-27 15:57:00,
2013-10-27 12:02:00,46.9,34.0,29.94,NW,311,9.0,17.0,61,0.00,,,0.00,434,WX/SQL,2013-10-27 16:02:00,
2013-10-27 12:07:00,47.1,35.0,29.94,West,277,7.0,16.0,62,0.00,,,0.00,218,WX/SQL,2013-10-27 16:07:00,
2013-10-27 12:12:00,46.2,35.0,29.93,West,279,3.0,16.0,64,0.00,,,0.00,204,WX/SQL,2013-10-27 16:12:00,
2013-10-27 12:17:00,45.6,34.0,29.94,WNW,294,8.0,16.0,63,0.00,,,0.00,271,WX/SQL,2013-10-27 16:17:00,
2013-10-27 12:22:00,45.7,33.0,29.94,NW,308,8.0,16.0,62,0.00,,,0.00,292,WX/SQL,2013-10-27 16:22:00,
2013-10-27 12:27:00,46.1,33.0,29.93,WNW,287,7.0,14.0,60,0.00,,,0.00,302,WX/SQL,2013-10-27 16:27:00,
2013-10-27 12:32:00,46.6,33.0,29.93,WNW,284,3.0,13.0,59,0.00,,,0.00,336,WX/SQL,2013-10-27 16:32:00,
2013-10-27 12:37:00,47.0,32.0,29.93,West,273,15.0,16.0,57,0.00,,,0.00,325,WX/SQL,2013-10-27 16:37:00,
2013-10-27 12:42:00,47.1,33.0,29.93,NW,309,5.0,16.0,59,0.00,,,0.00,269,WX/SQL,2013-10-27 16:42:00,
2013-10-27 12:47:00,46.7,34.0,29.94,West,266,6.0,17.0,61,0.00,,,0.00,134,WX/SQL,2013-10-27 16:47:00,
2013-10-27 12:52:00,46.1,34.0,29.94,WNW,292,11.0,16.0,63,0.00,,,0.00,120,WX/SQL,2013-10-27 16:52:00,
2013-10-27 12:57:00,45.4,35.0,29.94,West,262,7.0,14.0,66,0.00,,,0.00,165,WX/SQL,2013-10-27 16:57:00,
2013-10-27 13:02:00,45.1,35.0,29.94,NW,314,2.0,16.0,67,0.00,,,0.00,192,WX/SQL,2013-10-27 17:02:00,
2013-10-27 13:07:00,45.1,35.0,29.94,West,271,9.0,16.0,67,0.00,,,0.00,151,WX/SQL,2013-10-27 17:07:00,
2013-10-27 13:12:00,45.1,34.0,29.94,WNW,290,4.0,12.0,66,0.00,,,0.00,135,WX/SQL,2013-10-27 17:12:00,
2013-10-27 13:17:00,45.2,34.0,29.94,WNW,295,3.0,16.0,65,0.00,,,0.00,225,WX/SQL,2013-10-27 17:17:00,
2013-10-27 13:22:00,45.5,35.0,29.94,NW,314,6.0,16.0,66,0.00,,,0.00,292,WX/SQL,2013-10-27 17:22:00,
2013-10-27 13:27:00,45.8,34.0,29.94,WNW,294,7.0,12.0,64,0.00,,,0.00,257,WX/SQL,2013-10-27 17:27:00,
2013-10-27 13:32:00,46.3,34.0,29.94,WSW,241,6.0,13.0,63,0.00,,,0.00,392,WX/SQL,2013-10-27 17:32:00,
2013-10-27 13:38:00,46.5,34.0,29.94,NNW,342,2.0,13.0,63,0.00,,,0.00,311,WX/SQL,2013-10-27 17:38:00,
2013-10-27 13:43:00,46.8,34.0,29.94,NW,308,4.0,13.0,61,0.00,,,0.00,267,WX/SQL,2013-10-27 17:43:00,
2013-10-27 13:48:00,46.8,34.0,29.94,SW,236,9.0,13.0,61,0.00,,,0.00,255,WX/SQL,2013-10-27 17:48:00,
2013-10-27 13:53:00,46.7,35.0,29.94,WNW,286,4.0,13.0,63,0.00,,,0.00,399,WX/SQL,2013-10-27 17:53:00,
2013-10-27 13:58:00,46.8,34.0,29.94,NW,318,9.0,15.0,62,0.00,,,0.00,265,WX/SQL,2013-10-27 17:58:00,
2013-10-27 14:03:00,46.7,35.0,29.94,West,271,4.0,15.0,63,0.00,,,0.00,241,WX/SQL,2013-10-27 18:03:00,
2013-10-27 14:08:00,47.0,35.0,29.94,NW,305,3.0,14.0,63,0.00,,,0.00,137,WX/SQL,2013-10-27 18:08:00,
2013-10-27 14:13:00,46.9,34.0,29.94,West,263,4.0,11.0,62,0.00,,,0.00,95,WX/SQL,2013-10-27 18:13:00,
2013-10-27 14:18:00,46.8,35.0,29.95,West,275,3.0,12.0,64,0.00,,,0.00,84,WX/SQL,2013-10-27 18:18:00,
2013-10-27 14:23:00,46.3,35.0,29.95,WNW,303,7.0,16.0,65,0.00,,,0.00,65,WX/SQL,2013-10-27 18:23:00,
2013-10-27 14:28:00,46.0,35.0,29.95,NW,311,4.0,16.0,65,0.00,,,0.00,86,WX/SQL,2013-10-27 18:28:00,
2013-10-27 14:33:00,45.3,37.0,29.95,WSW,240,6.0,12.0,72,0.00,,,0.00,169,WX/SQL,2013-10-27 18:33:00,
2013-10-27 14:38:00,44.5,37.0,29.95,West,281,3.0,12.0,75,0.00,,,0.00,230,WX/SQL,2013-10-27 18:38:00,
2013-10-27 14:43:00,44.9,37.0,29.95,NW,305,3.0,9.0,73,0.00,,,0.00,290,WX/SQL,2013-10-27 18:43:00,
2013-10-27 14:48:00,45.7,37.0,29.95,NW,311,2.0,9.0,72,0.00,,,0.00,503,WX/SQL,2013-10-27 18:48:00,
2013-10-27 14:53:00,46.5,37.0,29.95,NW,323,3.0,9.0,69,0.00,,,0.00,262,WX/SQL,2013-10-27 18:53:00,
2013-10-27 14:58:00,46.5,36.0,29.95,NW,325,3.0,11.0,66,0.00,,,0.00,206,WX/SQL,2013-10-27 18:58:00,
2013-10-27 15:03:00,46.2,35.0,29.95,WNW,302,4.0,11.0,65,0.00,,,0.00,123,WX/SQL,2013-10-27 19:03:00,
2013-10-27 15:08:00,46.1,34.0,29.95,WNW,287,5.0,13.0,64,0.00,,,0.00,116,WX/SQL,2013-10-27 19:08:00,
2013-10-27 15:13:00,46.0,34.0,29.96,West,277,6.0,14.0,64,0.00,,,0.00,77,WX/SQL,2013-10-27 19:13:00,
2013-10-27 15:18:00,45.9,35.0,29.96,NW,315,3.0,14.0,65,0.00,,,0.00,69,WX/SQL,2013-10-27 19:18:00,
2013-10-27 15:23:00,45.8,35.0,29.96,WNW,292,7.0,12.0,65,0.00,,,0.00,93,WX/SQL,2013-10-27 19:23:00,
2013-10-27 15:28:00,45.5,35.0,29.96,NW,315,10.0,14.0,66,0.00,,,0.00,95,WX/SQL,2013-10-27 19:28:00,
2013-10-27 15:33:00,45.3,35.0,29.96,WNW,292,3.0,14.0,67,0.00,,,0.00,127,WX/SQL,2013-10-27 19:33:00,
2013-10-27 15:38:00,45.1,35.0,29.97,West,263,7.0,14.0,69,0.00,,,0.00,135,WX/SQL,2013-10-27 19:38:00,
2013-10-27 15:43:00,45.0,35.0,29.97,NW,317,3.0,13.0,69,0.00,,,0.00,139,WX/SQL,2013-10-27 19:43:00,
2013-10-27 15:48:00,45.0,35.0,29.97,West,271,6.0,14.0,69,0.00,,,0.00,116,WX/SQL,2013-10-27 19:48:00,
2013-10-27 15:53:00,45.1,35.0,29.97,WNW,294,2.0,14.0,68,0.00,,,0.00,181,WX/SQL,2013-10-27 19:53:00,
2013-10-27 15:58:00,45.4,35.0,29.97,West,274,8.0,8.0,68,0.00,,,0.00,206,WX/SQL,2013-10-27 19:58:00,
2013-10-27 16:03:00,45.6,36.0,29.97,West,263,9.0,11.0,68,0.00,,,0.00,132,WX/SQL,2013-10-27 20:03:00,
2013-10-27 16:08:00,45.7,35.0,29.97,West,281,4.0,11.0,67,0.00,,,0.00,311,WX/SQL,2013-10-27 20:08:00,
2013-10-27 16:13:00,46.1,35.0,29.97,NW,321,3.0,12.0,66,0.00,,,0.00,271,WX/SQL,2013-10-27 20:13:00,
2013-10-27 16:18:00,46.3,35.0,29.97,NNW,327,6.0,15.0,65,0.00,,,0.00,118,WX/SQL,2013-10-27 20:18:00,
2013-10-27 16:23:00,46.3,35.0,29.97,West,274,9.0,15.0,65,0.00,,,0.00,123,WX/SQL,2013-10-27 20:23:00,
2013-10-27 16:28:00,46.2,35.0,29.97,NW,311,6.0,13.0,64,0.00,,,0.00,178,WX/SQL,2013-10-27 20:28:00,
2013-10-27 16:33:00,46.2,35.0,29.97,West,263,8.0,13.0,65,0.00,,,0.00,167,WX/SQL,2013-10-27 20:33:00,
2013-10-27 16:38:00,46.5,34.0,29.97,NW,325,9.0,12.0,63,0.00,,,0.00,79,WX/SQL,2013-10-27 20:38:00,
2013-10-27 16:43:00,46.1,34.0,29.98,West,275,7.0,13.0,63,0.00,,,0.00,95,WX/SQL,2013-10-27 20:43:00,
2013-10-27 16:48:00,45.8,34.0,29.98,NW,317,9.0,13.0,63,0.00,,,0.00,84,WX/SQL,2013-10-27 20:48:00,
2013-10-27 16:53:00,45.4,34.0,29.98,NNW,342,4.0,13.0,64,0.00,,,0.00,74,WX/SQL,2013-10-27 20:53:00,
2013-10-27 16:58:00,45.2,34.0,29.98,West,275,4.0,13.0,65,0.00,,,0.00,51,WX/SQL,2013-10-27 20:58:00,
2013-10-27 17:03:00,45.0,34.0,29.98,WNW,290,3.0,11.0,65,0.00,,,0.00,28,WX/SQL,2013-10-27 21:03:00,
2013-10-27 17:08:00,45.0,34.0,29.99,West,269,4.0,12.0,66,0.00,,,0.00,60,WX/SQL,2013-10-27 21:08:00,
2013-10-27 17:13:00,45.1,34.0,29.99,WNW,283,6.0,12.0,66,0.00,,,0.00,58,WX/SQL,2013-10-27 21:13:00,
2013-10-27 17:18:00,45.0,34.0,29.99,WNW,297,4.0,8.0,66,0.00,,,0.00,33,WX/SQL,2013-10-27 21:18:00,
2013-10-27 17:23:00,44.5,34.0,29.99,West,272,4.0,9.0,67,0.00,,,0.00,28,WX/SQL,2013-10-27 21:23:00,
2013-10-27 17:28:00,44.2,34.0,30.00,NW,311,2.0,9.0,68,0.00,,,0.00,30,WX/SQL,2013-10-27 21:28:00,
2013-10-27 17:33:00,44.1,34.0,30.00,NW,304,3.0,9.0,69,0.00,,,0.00,19,WX/SQL,2013-10-27 21:33:00,
2013-10-27 17:38:00,44.1,34.0,30.01,NW,317,4.0,8.0,69,0.00,,,0.00,7,WX/SQL,2013-10-27 21:38:00,
2013-10-27 17:43:00,43.9,35.0,30.01,NNW,329,10.0,15.0,72,0.00,,,0.00,5,WX/SQL,2013-10-27 21:43:00,
2013-10-27 17:48:00,42.2,36.0,30.01,NW,309,2.0,16.0,80,0.00,,,0.00,0,WX/SQL,2013-10-27 21:48:00,
2013-10-27 17:53:00,41.6,36.0,30.01,West,279,6.0,14.0,81,0.00,,,0.00,0,WX/SQL,2013-10-27 21:53:00,
2013-10-27 17:58:00,41.5,36.0,30.01,WNW,284,2.0,10.0,81,0.00,,,0.00,0,WX/SQL,2013-10-27 21:58:00,
2013-10-27 18:03:00,41.6,36.0,30.01,West,263,4.0,7.0,80,0.00,,,0.00,0,WX/SQL,2013-10-27 22:03:00,
2013-10-27 18:08:00,42.0,36.0,30.01,WSW,246,4.0,9.0,78,0.00,,,0.00,0,WX/SQL,2013-10-27 22:08:00,
2013-10-27 18:13:00,42.2,35.0,30.01,NW,306,5.0,9.0,76,0.00,,,0.00,0,WX/SQL,2013-10-27 22:13:00,
2013-10-27 18:18:00,42.3,35.0,30.01,WNW,289,4.0,8.0,75,0.00,,,0.00,0,WX/SQL,2013-10-27 22:18:00,
2013-10-27 18:23:00,42.4,35.0,30.01,WNW,286,1.0,8.0,74,0.00,,,0.00,0,WX/SQL,2013-10-27 22:23:00,
2013-10-27 18:28:00,42.4,35.0,30.02,WNW,296,2.0,8.0,74,0.00,,,0.00,0,WX/SQL,2013-10-27 22:28:00,
2013-10-27 18:33:00,42.4,35.0,30.02,WNW,302,2.0,6.0,74,0.00,,,0.00,0,WX/SQL,2013-10-27 22:33:00,
2013-10-27 18:38:00,42.3,35.0,30.02,WSW,250,2.0,5.0,74,0.00,,,0.00,0,WX/SQL,2013-10-27 22:38:00,
2013-10-27 18:43:00,42.1,34.0,30.02,WSW,250,2.0,5.0,74,0.00,,,0.00,0,WX/SQL,2013-10-27 22:43:00,
2013-10-27 18:48:00,42.0,34.0,30.02,WNW,287,2.0,6.0,74,0.00,,,0.00,0,WX/SQL,2013-10-27 22:48:00,
2013-10-27 18:53:00,41.7,34.0,30.02,West,277,1.0,6.0,75,0.00,,,0.00,0,WX/SQL,2013-10-27 22:53:00,
2013-10-27 18:58:00,41.5,34.0,30.02,WSW,246,1.0,4.0,75,0.00,,,0.00,0,WX/SQL,2013-10-27 22:58:00,
2013-10-27 19:03:00,41.3,34.0,30.02,West,267,0.0,4.0,76,0.00,,,0.00,0,WX/SQL,2013-10-27 23:03:00,
2013-10-27 19:08:00,41.1,34.0,30.03,WNW,289,2.0,3.0,76,0.00,,,0.00,0,WX/SQL,2013-10-27 23:08:00,
2013-10-27 19:13:00,41.1,34.0,30.03,West,264,1.0,4.0,77,0.00,,,0.00,0,WX/SQL,2013-10-27 23:13:00,
2013-10-27 19:18:00,40.9,34.0,30.03,West,264,1.0,2.0,77,0.00,,,0.00,0,WX/SQL,2013-10-27 23:18:00,
2013-10-27 19:23:00,40.6,34.0,30.03,West,264,1.0,2.0,78,0.00,,,0.00,0,WX/SQL,2013-10-27 23:23:00,
2013-10-27 19:28:00,40.3,34.0,30.03,West,264,1.0,2.0,79,0.00,,,0.00,0,WX/SQL,2013-10-27 23:28:00,
2013-10-27 19:33:00,40.0,34.0,30.04,West,264,2.0,2.0,80,0.00,,,0.00,0,WX/SQL,2013-10-27 23:33:00,
2013-10-27 19:38:00,40.0,35.0,30.04,WSW,250,1.0,3.0,81,0.00,,,0.00,0,WX/SQL,2013-10-27 23:38:00,
2013-10-27 19:43:00,40.1,35.0,30.04,WSW,247,2.0,3.0,81,0.00,,,0.00,0,WX/SQL,2013-10-27 23:43:00,
2013-10-27 19:48:00,40.0,35.0,30.04,West,281,2.0,7.0,81,0.00,,,0.00,0,WX/SQL,2013-10-27 23:48:00,
2013-10-27 19:53:00,39.8,34.0,30.04,West,270,3.0,7.0,81,0.00,,,0.00,0,WX/SQL,2013-10-27 23:53:00,
2013-10-27 19:58:00,39.7,35.0,30.05,West,278,1.0,4.0,82,0.00,,,0.00,0,WX/SQL,2013-10-27 23:58:00,
2013-10-27 20:03:00,39.5,35.0,30.05,WSW,243,1.0,3.0,83,0.00,,,0.00,0,WX/SQL,2013-10-28 00:03:00,
2013-10-27 20:08:00,39.3,35.0,30.05,WSW,242,1.0,3.0,83,0.00,,,0.00,0,WX/SQL,2013-10-28 00:08:00,
2013-10-27 20:13:00,39.2,35.0,30.05,WSW,242,1.0,3.0,83,0.00,,,0.00,0,WX/SQL,2013-10-28 00:13:00,
2013-10-27 20:18:00,39.0,35.0,30.05,WSW,248,1.0,3.0,84,0.00,,,0.00,0,WX/SQL,2013-10-28 00:18:00,
2013-10-27 20:23:00,38.9,35.0,30.05,WSW,239,1.0,3.0,84,0.00,,,0.00,0,WX/SQL,2013-10-28 00:23:00,
2013-10-27 20:28:00,38.7,34.0,30.05,WSW,254,2.0,3.0,84,0.00,,,0.00,0,WX/SQL,2013-10-28 00:28:00,
2013-10-27 20:33:00,38.6,34.0,30.05,SW,234,2.0,4.0,84,0.00,,,0.00,0,WX/SQL,2013-10-28 00:33:00,
2013-10-27 20:38:00,38.7,34.0,30.05,SW,234,1.0,4.0,84,0.00,,,0.00,0,WX/SQL,2013-10-28 00:38:00,
2013-10-27 20:43:00,38.7,34.0,30.05,WSW,254,0.0,3.0,84,0.00,,,0.00,0,WX/SQL,2013-10-28 00:43:00,
2013-10-27 20:48:00,38.5,34.0,30.05,WSW,238,2.0,3.0,85,0.00,,,0.00,0,WX/SQL,2013-10-28 00:48:00,
2013-10-27 20:53:00,38.5,34.0,30.06,SW,236,2.0,3.0,85,0.00,,,0.00,0,WX/SQL,2013-10-28 00:53:00,
2013-10-27 20:58:00,38.4,34.0,30.06,WSW,246,1.0,4.0,85,0.00,,,0.00,0,WX/SQL,2013-10-28 00:58:00,
2013-10-27 21:03:00,38.3,34.0,30.06,WSW,255,0.0,4.0,85,0.00,,,0.00,0,WX/SQL,2013-10-28 01:03:00,
2013-10-27 21:08:00,38.2,34.0,30.06,WSW,255,0.0,2.0,85,0.00,,,0.00,0,WX/SQL,2013-10-28 01:08:00,
2013-10-27 21:13:00,38.2,34.0,30.06,WSW,255,1.0,2.0,86,0.00,,,0.00,0,WX/SQL,2013-10-28 01:13:00,
2013-10-27 21:18:00,38.1,34.0,30.06,WSW,255,1.0,2.0,86,0.00,,,0.00,0,WX/SQL,2013-10-28 01:18:00,
2013-10-27 21:23:00,37.9,34.0,30.06,WSW,255,1.0,3.0,86,0.00,,,0.00,0,WX/SQL,2013-10-28 01:23:00,
2013-10-27 21:28:00,37.8,34.0,30.07,WSW,255,1.0,3.0,86,0.00,,,0.00,0,WX/SQL,2013-10-28 01:28:00,
2013-10-27 21:33:00,37.8,34.0,30.07,WSW,239,2.0,3.0,87,0.00,,,0.00,0,WX/SQL,2013-10-28 01:33:00,
2013-10-27 21:38:00,37.8,34.0,30.07,WSW,254,1.0,3.0,87,0.00,,,0.00,0,WX/SQL,2013-10-28 01:38:00,
2013-10-27 21:43:00,37.7,34.0,30.07,WSW,253,1.0,3.0,87,0.00,,,0.00,0,WX/SQL,2013-10-28 01:43:00,
2013-10-27 21:48:00,37.7,34.0,30.07,West,262,3.0,3.0,87,0.00,,,0.00,0,WX/SQL,2013-10-28 01:48:00,
2013-10-27 21:53:00,37.7,34.0,30.07,West,261,2.0,3.0,87,0.00,,,0.00,0,WX/SQL,2013-10-28 01:53:00,
2013-10-27 21:58:00,37.8,34.0,30.07,West,261,1.0,3.0,87,0.00,,,0.00,0,WX/SQL,2013-10-28 01:58:00,
2013-10-27 22:03:00,37.9,34.0,30.08,West,261,0.0,3.0,87,0.00,,,0.00,0,WX/SQL,2013-10-28 02:03:00,
2013-10-27 22:08:00,38.0,35.0,30.08,West,261,1.0,3.0,87,0.00,,,0.00,0,WX/SQL,2013-10-28 02:08:00,
2013-10-27 22:13:00,38.0,35.0,30.08,West,260,2.0,3.0,87,0.00,,,0.00,0,WX/SQL,2013-10-28 02:13:00,
2013-10-27 22:18:00,38.0,35.0,30.08,WSW,252,2.0,3.0,87,0.00,,,0.00,0,WX/SQL,2013-10-28 02:18:00,
2013-10-27 22:23:00,37.9,34.0,30.07,SW,232,2.0,3.0,87,0.00,,,0.00,0,WX/SQL,2013-10-28 02:23:00,
2013-10-27 22:28:00,37.6,34.0,30.08,SW,221,1.0,3.0,87,0.00,,,0.00,0,WX/SQL,2013-10-28 02:28:00,
2013-10-27 22:33:00,37.3,34.0,30.08,SW,221,1.0,2.0,88,0.00,,,0.00,0,WX/SQL,2013-10-28 02:33:00,
2013-10-27 22:38:00,37.1,34.0,30.08,West,275,1.0,4.0,88,0.00,,,0.00,0,WX/SQL,2013-10-28 02:38:00,
2013-10-27 22:43:00,37.0,34.0,30.08,West,274,1.0,4.0,88,0.00,,,0.00,0,WX/SQL,2013-10-28 02:43:00,
2013-10-27 22:48:00,36.9,34.0,30.08,West,274,2.0,3.0,88,0.00,,,0.00,0,WX/SQL,2013-10-28 02:48:00,
2013-10-27 22:53:00,36.7,34.0,30.08,WSW,258,2.0,3.0,89,0.00,,,0.00,0,WX/SQL,2013-10-28 02:53:00,
2013-10-27 22:58:00,36.7,34.0,30.08,WSW,258,0.0,3.0,89,0.00,,,0.00,0,WX/SQL,2013-10-28 02:58:00,
2013-10-27 23:03:00,36.7,34.0,30.08,WSW,258,0.0,3.0,89,0.00,,,0.00,0,WX/SQL,2013-10-28 03:03:00,
2013-10-27 23:08:00,36.5,34.0,30.08,WSW,258,1.0,2.0,89,0.00,,,0.00,0,WX/SQL,2013-10-28 03:08:00,
2013-10-27 23:13:00,36.4,34.0,30.08,West,265,1.0,2.0,89,0.00,,,0.00,0,WX/SQL,2013-10-28 03:13:00,
2013-10-27 23:18:00,36.3,34.0,30.09,West,263,2.0,3.0,90,0.00,,,0.00,0,WX/SQL,2013-10-28 03:18:00,
2013-10-27 23:23:00,36.3,34.0,30.09,WNW,282,1.0,3.0,90,0.00,,,0.00,0,WX/SQL,2013-10-28 03:23:00,
2013-10-27 23:28:00,36.2,33.0,30.09,WNW,282,1.0,3.0,89,0.00,,,0.00,0,WX/SQL,2013-10-28 03:28:00,
2013-10-27 23:33:00,36.2,34.0,30.09,WSW,252,2.0,3.0,90,0.00,,,0.00,0,WX/SQL,2013-10-28 03:33:00,
2013-10-27 23:38:00,36.2,34.0,30.09,SW,225,1.0,3.0,90,0.00,,,0.00,0,WX/SQL,2013-10-28 03:38:00,
2013-10-27 23:43:00,36.3,34.0,30.09,WSW,257,1.0,3.0,90,0.00,,,0.00,0,WX/SQL,2013-10-28 03:43:00,
2013-10-27 23:49:00,35.9,33.0,30.09,WSW,257,0.0,3.0,88,0.00,,,0.00,0,WX/SQL,2013-10-28 03:49:00,
2013-10-27 23:54:00,35.2,32.0,30.09,WSW,257,0.0,2.0,88,0.00,,,0.00,0,WX/SQL,2013-10-28 03:54:00,
2013-10-27 23:59:00,34.7,32.0,30.08,WSW,257,1.0,1.0,90,0.00,,,0.00,0,WX/SQL,2013-10-28 03:59:00,